This demonstration page uses our WeatherBlox Daily Observations layout. Learn more.

Left ArrowRight Arrow

39.92423, -83.80882

Hourly Observations for October 24, 2021

Temp ( °F °C ) Dew Point ( °F °C ) Humidity (%) Winds ( mph kmh ) Pressure ( in mb ) Visibility ( mi km ) Precip ( " mm )
12:56 am 00:56 Cloudy 50 10 50 10 100 100 N N/A 30.05 1018 10 16 N/A
1:56 am 01:56 Cloudy 50 10 50 10 100 100 E 3 6 30.06 1018 10 16 N/A
2:56 am 02:56 Cloudy 49 9.4 49 9.4 100 100 ENE 3 6 30.06 1018 10 16 N/A
3:56 am 03:56 Cloudy 49 9.4 49 9.4 100 100 ESE 5 7 30.06 1018 10 16 N/A
4:56 am 04:56 Cloudy 49 9.4 49 9.4 100 100 E 6 9 30.04 1017 10 16 N/A
5:08 am 05:08 Cloudy 48 9 48 9 100 100 E 6 9 30.05 1017 10 16 N/A
5:56 am 05:56 Cloudy 50 10 50 10 100 100 ESE 8 13 30.04 1017 10 16 N/A
6:56 am 06:56 Cloudy 50 10 50 10 100 100 ESE 8 13 30.04 1017 10 16 N/A
7:03 am 07:03 Cloudy 50 10 50 10 100 100 ESE 7 11 30.04 1017 10 16 N/A
7:56 am 07:56 Cloudy 50 10 50 10 100 100 E 8 13 30.03 1017 10 16 N/A
8:56 am 08:56 Cloudy 51 10.6 51 10.6 100 100 ESE 8 13 30.02 1017 8 13 N/A
9:56 am 09:56 Cloudy with Haze 54 12 N/A N/A ESE 7 11 30.04 1017 5 8 N/A
10:56 am 10:56 Cloudy with Rain 54 12 N/A N/A ESE 7 11 30.03 1017 3 5 N/A
11:20 am 11:20 Cloudy with Light Rain 54 12 N/A N/A E 6 9 30.02 1017 3 5 N/A
11:45 am 11:45 Cloudy with Light Rain 54 12 N/A N/A E 7 11 30.02 1017 4 6 N/A
11:54 am 11:54 Cloudy with Light Rain 54 12 N/A N/A ESE 7 11 30.02 1017 4 6 N/A
11:56 am 11:56 Cloudy with Light Rain 54 12 N/A N/A ESE 7 11 30.03 1017 5 8 N/A
12:13 pm 12:13 Cloudy with Light Rain 55 13 N/A N/A ESE 6 9 30.02 1017 6 10 N/A
12:21 pm 12:21 Cloudy with Light Rain 55 13 N/A N/A ESE 10 17 29.99 1016 6 10 N/A
12:44 pm 12:44 Cloudy with Light Rain 55 13 N/A N/A SE 13 20 29.96 1015 9 14 N/A
12:56 pm 12:56 Cloudy 55 13 N/A N/A SE 12 19 29.97 1015 10 16 N/A
1:03 pm 13:03 Cloudy 55 13 N/A N/A SSE 10 17 29.96 1015 10 16 N/A
1:56 pm 13:56 Cloudy 55 13 N/A N/A SE 12 19 29.93 1014 10 16 N/A
2:56 pm 14:56 Cloudy with Rain 57 14 N/A N/A S 8 13 29.92 1013 3 5 N/A
3:56 pm 15:56 Cloudy with Light Rain 57 14 N/A N/A N 7 11 29.91 1013 10 16 N/A
4:01 pm 16:01 Cloudy with Heavy Rain 57 14 N/A N/A N N/A 29.90 1012 2 2 N/A
4:14 pm 16:14 Cloudy with Rain 57 14 N/A N/A N N/A 29.91 1013 3 5 N/A
4:28 pm 16:28 Cloudy with Light Rain 57 14 N/A N/A N 5 7 29.91 1013 3 4 N/A
4:33 pm 16:33 Cloudy with Light Rain 57 14 N/A N/A NNE 6 9 29.91 1013 2 3 N/A
4:40 pm 16:40 Cloudy with Light Rain 57 14 N/A N/A NE 6 9 29.90 1012 1 2 N/A
4:51 pm 16:51 Cloudy with Light Rain 57 14 N/A N/A E 5 7 29.90 1012 3 5 N/A
4:56 pm 16:56 Cloudy with Light Rain 57 14 N/A N/A E 5 7 29.90 1013 4 6 N/A
5:51 pm 17:51 Cloudy with Light Rain 57 14 N/A N/A E 6 9 29.85 1011 8 13 N/A
5:56 pm 17:56 Cloudy with Light Rain 57 14 N/A N/A E 6 9 29.86 1011 8 13 N/A
6:56 pm 18:56 Cloudy with Haze 57 14 N/A N/A ENE 5 7 29.85 1011 5 8 N/A
7:56 pm 19:56 Mostly Clear with Mist and Fog 55 13 N/A N/A ESE 6 9 29.84 1011 3 5 N/A
8:07 pm 20:07 Mostly Clear with Mist and Fog 55 13 N/A N/A ESE 7 11 29.82 1010 3 4 N/A
8:19 pm 20:19 Clear with Mist and Fog 55 13 N/A N/A ESE 7 11 29.82 1010 3 5 N/A
8:28 pm 20:28 Clear with Mist and Fog 55 13 N/A N/A ESE 6 9 29.82 1010 3 4 N/A
8:56 pm 20:56 Clear with Mist and Fog 55 13 N/A N/A SSE 6 9 29.81 1010 3 5 N/A
9:56 pm 21:56 Partly Cloudy 64 17.8 64 17.8 100 100 S 9 15 29.79 1009 10 16 N/A
10:56 pm 22:56 Mostly Clear 66 18.9 64 17.8 93 93 SSW 14 22 29.79 1009 10 16 N/A
11:56 pm 23:56 Clear 66 18.9 61 16.1 84 84 SSW 15 24 29.77 1008 10 16 N/A

Powered by AerisWeather